Location: Livorno
(43.5500°N, 10.3170°E)
Time: 21:12:26
(UTC+01:00)

ISS - Visible Passes

Search period start: 19 February 2018 00:00
Search period end: 01 March 2018 00:00
Orbit: 403 x 407 km, 51.6° (Epoch: 20 February)

Date Brightness Start Highest point End Pass type
(mag) Time Alt. Az. Time Alt. Az. Time Alt. Az.
24 Feb -0.7 06:32:28 10° SSE 06:34:19 14° SE 06:36:09 10° E visible
26 Feb -2.0 06:23:03 10° SSW 06:25:59 31° SE 06:28:57 10° ENE visible
27 Feb -1.1 05:31:37 10° S 05:33:53 18° SE 05:36:10 10° E visible
28 Feb -3.6 06:14:30 10° SW 06:17:45 74° SE 06:21:01 10° ENE visible
